Home   Weather   Conakry   Past weeks

Flag for Guinea Past Weather in Conakry, Guinea — Yesterday and Last 2 Weeks

Now
88 °F

Passing clouds.


Feels Like: 100 °F
Forecast: N/A
Wind: 9 mph from Southwest

Location: Conakry / Gbessia

Current Time: Dec 5, 2016 at 6:54:00 pm

Latest Report: Dec 5, 2016 at 5:00 pm


Visibility: N/A

Pressure: 29.83 "Hg

Humidity: 70%

Dew Point: 77 °F

Location of ConakryLocation

Past Weather in Conakry — Graph

°F

Conakry Temperature Yesterday

Maximum temperature yesterday: 91 °F (at 4:00 pm)
Minimum temperature yesterday: 79 °F (at 7:00 am)
Average temperature yesterday: 84 °F

High & Low Weather Summary for the Past Weeks

 TemperatureHumidityPressure
High91 °F (Nov 21, 2:00 pm)100% (Nov 24, 4:00 am)29.95 "Hg (Nov 24, 4:00 am)
Low72 °F (Nov 24, 4:00 am)55% (Nov 27, 2:00 pm)29.74 "Hg (Nov 25, 4:00 pm)
Average83 °F81%29.85 "Hg
* Reported Nov 20 5:00 pm — Dec 5 5:00 pm, Conakry, Weather by CustomWeather, © 2016

Note: Actual official high and low records may vary slightly from our data, if they occured in-between our weather recording intervals... More about our weather records

Advertising

Conakry Weather History for the Previous 24 Hours

Scroll right to see more
 ConditionsComfort  
Time TempWeatherWind HumidityBarometerVisibility
5:00 pm
Mon, Dec 5
88 °FPassing clouds.9 mph70%29.83 "HgN/A
4:00 pm90 °FScattered clouds.9 mph63%29.83 "HgN/A
3:00 pm90 °FScattered clouds.12 mph71%29.83 "HgN/A
2:00 pm88 °FPartly sunny.12 mph75%29.86 "HgN/A
1:00 pm90 °FPartly sunny.9 mph71%29.86 "HgN/A
12:00 pm88 °FScattered clouds.5 mph75%29.89 "HgN/A
11:00 am86 °FScattered clouds.7 mph79%29.92 "HgN/A
10:00 am86 °FPassing clouds.7 mph75%29.92 "HgN/A
9:00 am82 °FPassing clouds.7 mph84%29.92 "HgN/A
8:00 am79 °FFog.No wind94%29.92 "Hg2 mi
7:00 am79 °FFog.No wind94%29.89 "Hg2 mi
6:00 am81 °FFog.No wind100%29.86 "Hg2 mi
5:00 am81 °FFog.7 mph100%29.86 "Hg2 mi
4:00 am81 °FFog.7 mph100%29.83 "Hg2 mi
3:00 am81 °FFog.No wind100%29.83 "Hg2 mi
12:00 am81 °FFog.No wind94%29.86 "Hg2 mi
11:00 pm
Sun, Dec 4
82 °FFog.No wind84%29.86 "Hg2 mi
10:00 pm82 °FFog.No wind89%29.86 "Hg2 mi
9:00 pm82 °FPassing clouds.No wind89%29.83 "HgN/A
8:00 pm84 °FPassing clouds.2 mph84%29.80 "HgN/A
7:00 pm84 °FPassing clouds.7 mph84%29.80 "HgN/A
6:00 pm88 °FPassing clouds.7 mph70%29.80 "HgN/A
Weather by CustomWeather, © 2016

See weather overviewHow to use our weather pages